Regional Weather Roundup
Issued by NWS

Home | Current Version | Previous Version | Text Only | Print | Product List | Glossary Off
Versions: 1 2 3 4 5 6 7 8 9 10 11 12 13 14 15 16 17 18 19 20 21 22 23 24 25 26 27 28 29 30 31 32 33 34 35 36 37 38 39 40 41 42 43 44 45 46 47 48 49 50

000
ASUS43 KLSX 251659
RWRMO

WEATHER SUMMARY FOR MISSOURI
NATIONAL WEATHER SERVICE SPRINGFIELD MO
1200 PM CDT FRI JUL 25 2014

NOTE: "FAIR" INDICATES FEW OR NO CLOUDS BELOW 12,000 FEET WITH NO
       SIGNIFICANT WEATHER AND/OR OBSTRUCTIONS TO VISIBILITY.
       CURRENT SKY AND/OR WEATHER CONDITIONS ARE NOT AVAILABLE FOR
       CHILLICOTHE AND FARMINGTON.

MOZ001>031-035>038-043-044-053-054-251800-
...NORTHERN AND WESTERN MISSOURI...

CITY           SKY/WX    TMP DP  RH WIND       PRES   REMARKS
KANSAS CTY INT PTSUNNY   87  73  62 S18G26    29.84F HX  94
KANSAS C DTWN  LGT RAIN  91  71  51 SW16G26   29.83F HX  97
LEE`S SUMMIT   MOSUNNY   87  72  60 S15G23    29.87F HX  93
ST JOSEPH      MOSUNNY   85  74  69 S9        29.83S HX  92
CHILLICOTHE      N/A     79  68  69 SE7       29.90F
KIRKSVILLE     CLOUDY    65  62  90 E12       30.01R

$$
MOZ066>068-077>081-088>096-101>105-251800-
...SOUTHWEST MISSOURI...

CITY           SKY/WX    TMP DP  RH WIND       PRES   REMARKS
SPRINGFIELD    MOSUNNY   83  70  64 S16       29.98F
JOPLIN         SUNNY     87  70  56 S18       29.97F HX  92

$$
MOZ032>034-039>042-045>050-055>058-069>072-251800-
...CENTRAL MISSOURI...

CITY           SKY/WX    TMP DP  RH WIND       PRES   REMARKS
COLUMBIA       PTSUNNY   78  65  63 S13       29.97S
JEFFERSON CITY MOSUNNY   79  64  60 SE10      29.96F
ROLLA          MOSUNNY   81  61  50 S14       30.01R
SEDALIA        PTSUNNY   85  71  63 S14       29.93S HX  90
OSAGE BEACH    SUNNY     84  66  54 S9        29.97R

$$
MOZ051-052-059>065-251800-
...EAST CENTRAL MISSOURI...

CITY           SKY/WX    TMP DP  RH WIND       PRES   REMARKS
ST LOUIS INTL  CLOUDY    74  57  55 S7        30.05S
SPIRIT OF STL  CLOUDY    71  60  68 S6        30.03S
ST CHARLES     CLOUDY    69  64  84 CALM      30.05R

$$
MOZ072>076-082>087-097>100-106>115-251800-
...SOUTH CENTRAL AND SOUTHEAST MISSOURI...

CITY           SKY/WX    TMP DP  RH WIND       PRES   REMARKS
CAPE GIRARDEAU MOSUNNY   80  61  52 S6        30.05F
FARMINGTON     MOSUNNY   77  59  53 S9        30.09R
POPLAR BLUFF   SUNNY     79  56  45 SW3       30.04F
WEST PLAINS    CLOUDY    77  62  59 S9        30.06F

$$



USA.gov is the U.S. government's official web portal to all federal, state and local government web resources and services.